QPF
0.01 0.02 0.02 0.02 0.02 0.01 0.01 0.01 0.01 0.02 0.02 0.03 0.03 0.04 0.07 0.06 0.04 0.03 0.03 0.04 0.04 0.07 0.07 0.07 0.09 0.11 0.13 0.14 0.13 0.14 0.16 0.16 0.19 0.16 0.14 0.14 0.12 0.10 0.09 0.07 0.07 0.08 0.07 0.07
0.02 0.03 0.03 0.03 0.02 0.01 0.01 0.01 0.01 0.02 0.03 0.03 0.04 0.08 0.07 0.03 0.03 0.06 0.09 0.05 0.05 0.09 0.11 0.10 0.10 0.12 0.16 0.17 0.18 0.22 0.26 0.30 0.32 0.32 0.31 0.29 0.24 0.18 0.17 0.17 0.17 0.15 0.15 0.15
0.04 0.04 0.04 0.03 0.03 0.03 0.02 0.02 0.01 0.02 0.03 0.04 0.05 0.10 0.10 0.07 0.05 0.06 0.05 0.04 0.05 0.11 0.16 0.16 0.16 0.16 0.17 0.17 0.19 0.24 0.28 0.29 0.29 0.28 0.26 0.27 0.29 0.26 0.22 0.22 0.22 0.23 0.24 0.21
0.07 0.06 0.07 0.05 0.04 0.04 0.03 0.03 0.03 0.02 0.04 0.05 0.05 0.08 0.09 0.06 0.06 0.05 0.04 0.05 0.04 0.08 0.13 0.16 0.16 0.17 0.20 0.25 0.28 0.30 0.31 0.31 0.32 0.33 0.33 0.32 0.29 0.23 0.21 0.21 0.23 0.23 0.22 0.19
0.11 0.11 0.08 0.05 0.08 0.09 0.07 0.08 0.07 0.07 0.07 0.08 0.11 0.13 0.16 0.12 0.08 0.06 0.06 0.08 0.06 0.08 0.11 0.13 0.16 0.17 0.17 0.21 0.25 0.28 0.28 0.30 0.34 0.37 0.39 0.30 0.21 0.17 0.15 0.15 0.14 0.12 0.12 0.11
0.15 0.17 0.15 0.08 0.09 0.11 0.10 0.14 0.11 0.11 0.10 0.10 0.13 0.18 0.19 0.13 0.07 0.05 0.05 0.06 0.07 0.09 0.11 0.13 0.15 0.16 0.18 0.18 0.19 0.21 0.20 0.19 0.21 0.22 0.24 0.26 0.20 0.14 0.12 0.11 0.10 0.10 0.10 0.10
0.21 0.23 0.20 0.13 0.10 0.10 0.12 0.16 0.16 0.13 0.14 0.15 0.16 0.15 0.12 0.10 0.07 0.05 0.04 0.04 0.04 0.06 0.08 0.08 0.09 0.10 0.11 0.09 0.09 0.08 0.07 0.06 0.07 0.07 0.08 0.10 0.11 0.11 0.11 0.12 0.11 0.10 0.08 0.06
0.20 0.27 0.26 0.16 0.13 0.12 0.16 0.22 0.28 0.26 0.21 0.18 0.19 0.19 0.17 0.12 0.07 0.04 0.03 0.02 0.02 0.02 0.02 0.02 0.03 0.04 0.05 0.04 0.04 0.03 0.03 0.02 0.02 0.02 0.03 0.03 0.04 0.05 0.06 0.06 0.07 0.07 0.05 0.04
0.26 0.28 0.24 0.19 0.18 0.19 0.22 0.31 0.30 0.29 0.30 0.23 0.16 0.15 0.13 0.09 0.05 0.04 0.03 0.02 0.01 0.01 0.01 0.01 0.01 0.02 0.02 0.02 0.02 0.02 0.01 0.01 0.02 0.02 0.02 0.01 0.01 0.01 0.01 0.01 0.01 0.02 0.02 0.02
0.31 0.30 0.28 0.24 0.20 0.21 0.26 0.28 0.27 0.22 0.25 0.23 0.14 0.13 0.15 0.12 0.06 0.03 0.03 0.02 0.01 0.01 0.00 0.00 0.00 0.00 0.00 0.00 0.00 0.00 0.00 0.00 0.00 0.00 0.00 0.00 0.00 0.00 0.00 0.00 0.00 0.00 0.01 0.01
0.33 0.33 0.33 0.33 0.26 0.24 0.31 0.34 0.31 0.27 0.22 0.19 0.14 0.17 0.22 0.19 0.11 0.03 0.01 0.01 0.01 0.01 0.00 0.00 0.00 0.00 0.00 0.00 0.00 0.00 0.00 0.00 0.00 0.00 0.00 0.00 0.00 0.00 0.00 0.00 0.00 0.00 0.00 0.00
0.28 0.28 0.29 0.30 0.27 0.28 0.33 0.34 0.30 0.27 0.20 0.14 0.16 0.16 0.13 0.11 0.06 0.03 0.01 0.01 0.01 0.00 0.00 0.00 0.00 0.00 0.00 0.00 0.00 0.00 0.00 0.00 0.00 0.00 0.00 0.00 0.00 0.00 0.00 0.00 0.00 0.00 0.00 0.00
0.17 0.20 0.21 0.23 0.22 0.20 0.17 0.14 0.14 0.16 0.12 0.09 0.11 0.13 0.07 0.05 0.04 0.03 0.01 0.01 0.00 0.00 0.00 0.00 0.00 0.00 0.00 0.00 0.00 0.00 0.00 0.00 0.00 0.00 0.00 0.00 0.00 0.00 0.00 0.00 0.00 0.00 0.00 0.00
0.15 0.13 0.15 0.16 0.17 0.15 0.13 0.12 0.10 0.09 0.06 0.04 0.04 0.04 0.05 0.04 0.03 0.02 0.01 0.00 0.00 0.00 0.00 0.00 0.00 0.00 0.00 0.00 0.00 0.00 0.00 0.00 0.00 0.00 0.00 0.00 0.00 0.00 0.00 0.00 0.00 0.00 0.00 0.00
0.12 0.09 0.09 0.08 0.10 0.11 0.10 0.09 0.06 0.04 0.04 0.04 0.03 0.03 0.03 0.02 0.02 0.02 0.01 0.00 0.00 0.00 0.00 0.00 0.00 0.00 0.00 0.00 0.00 0.00 0.00 0.00 0.00 0.00 0.00 0.00 0.00 0.00 0.00 0.00 0.00 0.00 0.00 0.00
0.11 0.11 0.10 0.07 0.09 0.07 0.05 0.04 0.03 0.02 0.02 0.02 0.02 0.02 0.01 0.01 0.01 0.01 0.01 0.00 0.00 0.00 0.00 0.00 0.00 0.00 0.00 0.00 0.00 0.00 0.00 0.00 0.00 0.00 0.00 0.00 0.00 0.00 0.00 0.00 0.00 0.00 0.00 0.00
0.06 0.05 0.03 0.03 0.05 0.04 0.02 0.02 0.02 0.01 0.01 0.01 0.01 0.01 0.01 0.00 0.00 0.00 0.00 0.00 0.00 0.00 0.00 0.00 0.00 0.00 0.00 0.00 0.00 0.00 0.00 0.00 0.00 0.00 0.00 0.00 0.00 0.00 0.00 0.00 0.00 0.00 0.00 0.00
0.04 0.03 0.02 0.01 0.01 0.01 0.01 0.01 0.01 0.00 0.00 0.00 0.00 0.00 0.00 0.01 0.01 0.01 0.01 0.01 0.00 0.00 0.00 0.00 0.00 0.00 0.00 0.00 0.00 0.00 0.00 0.00 0.00 0.00 0.00 0.00 0.00 0.00 0.00 0.00 0.00 0.00 0.00 0.00
0.03 0.02 0.01 0.01 0.01 0.01 0.01 0.01 0.00 0.00 0.00 0.00 0.00 0.00 0.00 0.00 0.01 0.01 0.01 0.00 0.00 0.00 0.00 0.00 0.00 0.01 0.01 0.00 0.00 0.00 0.00 0.00 0.00 0.00 0.00 0.00 0.00 0.00 0.00 0.00 0.00 0.00 0.00 0.00
0.02 0.01 0.00 0.00 0.00 0.00 0.00 0.00 0.00 0.00 0.00 0.00 0.00 0.00 0.00 0.00 0.00 0.00 0.00 0.00 0.00 0.00 0.01 0.01 0.01 0.01 0.01 0.01 0.00 0.00 0.00 0.00 0.00 0.00 0.00 0.00 0.00 0.00 0.00 0.00 0.00 0.00 0.00 0.00
0.01 0.00 0.00 0.00 0.00 0.00 0.00 0.00 0.00 0.00 0.00 0.00 0.00 0.00 0.00 0.00 0.00 0.00 0.00 0.01 0.01 0.00 0.01 0.01 0.01 0.01 0.01 0.01 0.01 0.00 0.00 0.00 0.00 0.00 0.00 0.00 0.00 0.00 0.00 0.00 0.00 0.00 0.00 0.00
0.01 0.02 0.01 0.00 0.00 0.00 0.00 0.00 0.00 0.00 0.00 0.00 0.00 0.00 0.00 0.00 0.01 0.00 0.00 0.01 0.00 0.00 0.01 0.01 0.01 0.01 0.01 0.01 0.01 0.00 0.00 0.00 0.00 0.00 0.00 0.00 0.00 0.00 0.00 0.00 0.00 0.00 0.00 0.00
0.00 0.01 0.01 0.00 0.00 0.00 0.00 0.00 0.00 0.00 0.00 0.00 0.00 0.00 0.00 0.01 0.01 0.01 0.01 0.01 0.01 0.01 0.01 0.01 0.01 0.01 0.01 0.01 0.01 0.01 0.00 0.00 0.00 0.00 0.00 0.00 0.00 0.00 0.00 0.00 0.00 0.00 0.00 0.00
0.01 0.01 0.00 0.00 0.00 0.00 0.00 0.00 0.00 0.00 0.01 0.01 0.01 0.01 0.01 0.02 0.02 0.02 0.02 0.02 0.02 0.02 0.01 0.01 0.01 0.01 0.01 0.01 0.01 0.01 0.00 0.00 0.00 0.00 0.00 0.00 0.00 0.00 0.00 0.00 0.00 0.00 0.00 0.00
0.01 0.00 0.00 0.00 0.00 0.01 0.00 0.01 0.01 0.01 0.01 0.01 0.01 0.01 0.01 0.02 0.03 0.03 0.03 0.02 0.01 0.01 0.01 0.01 0.01 0.01 0.02 0.02 0.01 0.01 0.00 0.00 0.00 0.00 0.00 0.00 0.00 0.00 0.00 0.00 0.00 0.00 0.00 0.00
0.00 0.00 0.00 0.01 0.01 0.01 0.01 0.01 0.01 0.01 0.01 0.02 0.02 0.02 0.02 0.02 0.02 0.02 0.02 0.01 0.01 0.01 0.01 0.01 0.01 0.02 0.02 0.02 0.02 0.01 0.00 0.00 0.00 0.00 0.00 0.00 0.00 0.00 0.00 0.00 0.00 0.00 0.00 0.00
0.00 0.00 0.00 0.00 0.00 0.01 0.01 0.01 0.01 0.01 0.01 0.02 0.02 0.02 0.02 0.02 0.01 0.02 0.01 0.01 0.01 0.01 0.02 0.03 0.03 0.02 0.02 0.01 0.01 0.00 0.00 0.00 0.00 0.00 0.00 0.00 0.00 0.00 0.00 0.00 0.00 0.00 0.00 0.00
MSLP
1008.13 1008.04 1008.02 1008.10 1008.25 1008.43 1008.59 1008.68 1008.68 1008.57 1008.39 1008.16 1007.97 1007.85 1007.86 1008.01 1008.31 1008.70 1009.15 1009.60 1009.99 1010.29 1010.52 1010.69 1010.83 1011.01 1011.25 1011.58 1012.01 1012.50 1013.00 1013.47 1013.86 1014.12 1014.26 1014.27 1014.22 1014.14 1014.10 1014.13 1014.26 1014.51 1014.85 1015.26
1008.77 1008.61 1008.45 1008.31 1008.18 1008.06 1007.92 1007.77 1007.59 1007.39 1007.20 1007.06 1007.00 1007.05 1007.23 1007.52 1007.90 1008.34 1008.78 1009.19 1009.54 1009.81 1010.03 1010.23 1010.44 1010.71 1011.06 1011.52 1012.05 1012.62 1013.18 1013.68 1014.06 1014.31 1014.41 1014.40 1014.31 1014.21 1014.14 1014.15 1014.27 1014.50 1014.82 1015.20
1009.56 1009.33 1009.05 1008.72 1008.37 1008.00 1007.63 1007.27 1006.95 1006.68 1006.50 1006.42 1006.47 1006.66 1006.96 1007.36 1007.81 1008.27 1008.71 1009.09 1009.40 1009.65 1009.87 1010.09 1010.37 1010.72 1011.17 1011.72 1012.34 1012.97 1013.56 1014.07 1014.44 1014.67 1014.75 1014.71 1014.61 1014.50 1014.43 1014.44 1014.56 1014.78 1015.09 1015.46
1010.36 1010.07 1009.68 1009.21 1008.68 1008.13 1007.59 1007.10 1006.68 1006.37 1006.20 1006.19 1006.34 1006.62 1007.03 1007.50 1008.01 1008.49 1008.93 1009.29 1009.59 1009.83 1010.06 1010.32 1010.65 1011.07 1011.59 1012.20 1012.86 1013.52 1014.12 1014.61 1014.96 1015.16 1015.22 1015.17 1015.07 1014.97 1014.92 1014.96 1015.10 1015.34 1015.65 1016.00
1011.04 1010.67 1010.19 1009.61 1008.97 1008.31 1007.66 1007.09 1006.63 1006.32 1006.18 1006.23 1006.46 1006.83 1007.32 1007.86 1008.42 1008.94 1009.39 1009.76 1010.06 1010.32 1010.58 1010.88 1011.25 1011.71 1012.27 1012.90 1013.57 1014.21 1014.78 1015.23 1015.54 1015.71 1015.74 1015.69 1015.60 1015.53 1015.52 1015.61 1015.79 1016.06 1016.39 1016.75
1011.43 1010.98 1010.43 1009.78 1009.07 1008.36 1007.68 1007.10 1006.64 1006.36 1006.28 1006.39 1006.70 1007.16 1007.72 1008.33 1008.94 1009.50 1009.99 1010.39 1010.73 1011.02 1011.32 1011.65 1012.06 1012.54 1013.10 1013.72 1014.35 1014.94 1015.44 1015.83 1016.09 1016.21 1016.22 1016.17 1016.11 1016.08 1016.12 1016.26 1016.50 1016.82 1017.18 1017.55
1011.44 1010.92 1010.31 1009.63 1008.91 1008.21 1007.56 1007.01 1006.61 1006.40 1006.39 1006.58 1006.97 1007.50 1008.13 1008.81 1009.48 1010.09 1010.63 1011.09 1011.48 1011.83 1012.16 1012.53 1012.95 1013.43 1013.97 1014.54 1015.10 1015.61 1016.03 1016.34 1016.52 1016.59 1016.58 1016.53 1016.50 1016.51 1016.61 1016.81 1017.11 1017.48 1017.88 1018.27
1011.03 1010.46 1009.83 1009.17 1008.50 1007.86 1007.28 1006.83 1006.53 1006.41 1006.49 1006.77 1007.23 1007.83 1008.53 1009.27 1009.99 1010.67 1011.27 1011.78 1012.23 1012.63 1013.01 1013.40 1013.83 1014.29 1014.78 1015.27 1015.74 1016.15 1016.48 1016.69 1016.80 1016.83 1016.79 1016.74 1016.73 1016.78 1016.93 1017.19 1017.53 1017.94 1018.38 1018.79
1010.29 1009.71 1009.11 1008.51 1007.93 1007.40 1006.96 1006.63 1006.45 1006.45 1006.63 1006.99 1007.52 1008.19 1008.93 1009.71 1010.48 1011.20 1011.86 1012.43 1012.92 1013.37 1013.78 1014.18 1014.59 1015.01 1015.44 1015.85 1016.22 1016.53 1016.76 1016.89 1016.93 1016.91 1016.85 1016.81 1016.81 1016.89 1017.08 1017.37 1017.75 1018.18 1018.63 1019.06
1009.39 1008.84 1008.32 1007.83 1007.38 1007.01 1006.72 1006.55 1006.51 1006.62 1006.90 1007.34 1007.92 1008.62 1009.39 1010.19 1010.98 1011.73 1012.41 1013.01 1013.54 1014.01 1014.43 1014.82 1015.21 1015.58 1015.93 1016.26 1016.54 1016.75 1016.89 1016.95 1016.94 1016.89 1016.82 1016.78 1016.80 1016.90 1017.10 1017.40 1017.79 1018.23 1018.68 1019.10
1008.52 1008.06 1007.66 1007.32 1007.05 1006.85 1006.74 1006.72 1006.82 1007.05 1007.41 1007.90 1008.51 1009.21 1009.97 1010.76 1011.54 1012.27 1012.95 1013.55 1014.08 1014.55 1014.96 1015.33 1015.66 1015.98 1016.27 1016.51 1016.72 1016.86 1016.94 1016.95 1016.92 1016.85 1016.78 1016.75 1016.78 1016.89 1017.09 1017.39 1017.76 1018.18 1018.60 1019.00
1007.91 1007.59 1007.35 1007.18 1007.09 1007.07 1007.13 1007.26 1007.48 1007.80 1008.21 1008.72 1009.32 1009.99 1010.71 1011.44 1012.17 1012.87 1013.51 1014.08 1014.58 1015.01 1015.38 1015.71 1016.00 1016.26 1016.48 1016.67 1016.82 1016.92 1016.97 1016.97 1016.93 1016.88 1016.83 1016.82 1016.86 1016.97 1017.17 1017.44 1017.77 1018.15 1018.52 1018.87
1007.71 1007.54 1007.47 1007.48 1007.56 1007.71 1007.91 1008.17 1008.48 1008.84 1009.27 1009.77 1010.32 1010.93 1011.58 1012.24 1012.89 1013.51 1014.08 1014.59 1015.04 1015.42 1015.75 1016.03 1016.27 1016.47 1016.65 1016.80 1016.92 1017.00 1017.05 1017.07 1017.06 1017.05 1017.04 1017.05 1017.11 1017.23 1017.41 1017.65 1017.93 1018.24 1018.56 1018.84
1007.96 1007.95 1008.03 1008.20 1008.43 1008.71 1009.02 1009.35 1009.71 1010.09 1010.51 1010.96 1011.45 1011.98 1012.53 1013.09 1013.64 1014.18 1014.67 1015.11 1015.49 1015.82 1016.09 1016.32 1016.51 1016.68 1016.83 1016.96 1017.08 1017.17 1017.25 1017.31 1017.35 1017.39 1017.43 1017.49 1017.57 1017.70 1017.86 1018.05 1018.28 1018.53 1018.77 1018.98
1008.61 1008.73 1008.94 1009.22 1009.56 1009.92 1010.30 1010.67 1011.04 1011.41 1011.79 1012.17 1012.58 1013.02 1013.47 1013.93 1014.39 1014.84 1015.25 1015.62 1015.94 1016.22 1016.45 1016.64 1016.80 1016.94 1017.08 1017.21 1017.33 1017.46 1017.58 1017.69 1017.80 1017.90 1018.00 1018.11 1018.22 1018.34 1018.49 1018.65 1018.82 1018.99 1019.15 1019.29
1009.54 1009.75 1010.04 1010.39 1010.79 1011.19 1011.59 1011.96 1012.31 1012.64 1012.96 1013.28 1013.61 1013.96 1014.32 1014.70 1015.09 1015.46 1015.81 1016.13 1016.41 1016.65 1016.84 1017.01 1017.15 1017.29 1017.42 1017.56 1017.71 1017.87 1018.04 1018.21 1018.38 1018.55 1018.70 1018.84 1018.98 1019.11 1019.24 1019.36 1019.47 1019.58 1019.66 1019.72
1010.58 1010.83 1011.16 1011.55 1011.95 1012.36 1012.74 1013.09 1013.40 1013.68 1013.94 1014.20 1014.46 1014.74 1015.04 1015.37 1015.70 1016.03 1016.35 1016.64 1016.89 1017.11 1017.30 1017.46 1017.60 1017.73 1017.87 1018.03 1018.21 1018.40 1018.61 1018.82 1019.04 1019.25 1019.45 1019.62 1019.77 1019.90 1020.00 1020.09 1020.15 1020.19 1020.21 1020.19
1011.57 1011.83 1012.17 1012.54 1012.93 1013.30 1013.65 1013.96 1014.23 1014.46 1014.68 1014.89 1015.11 1015.35 1015.62 1015.92 1016.23 1016.55 1016.86 1017.15 1017.40 1017.63 1017.82 1017.99 1018.14 1018.28 1018.43 1018.60 1018.79 1019.00 1019.23 1019.48 1019.72 1019.95 1020.16 1020.34 1020.49 1020.61 1020.68 1020.73 1020.74 1020.72 1020.67 1020.59
1012.40 1012.65 1012.97 1013.31 1013.66 1014.00 1014.31 1014.58 1014.81 1015.01 1015.19 1015.38 1015.58 1015.82 1016.08 1016.37 1016.69 1017.02 1017.35 1017.66 1017.94 1018.19 1018.40 1018.59 1018.75 1018.91 1019.07 1019.24 1019.43 1019.64 1019.87 1020.11 1020.35 1020.58 1020.78 1020.95 1021.07 1021.16 1021.20 1021.21 1021.17 1021.10 1021.00 1020.87
1013.04 1013.28 1013.56 1013.87 1014.19 1014.50 1014.77 1015.01 1015.21 1015.40 1015.57 1015.75 1015.96 1016.20 1016.47 1016.79 1017.13 1017.48 1017.84 1018.18 1018.49 1018.77 1019.01 1019.22 1019.40 1019.56 1019.73 1019.89 1020.08 1020.27 1020.48 1020.69 1020.90 1021.09 1021.26 1021.39 1021.48 1021.53 1021.53 1021.49 1021.42 1021.30 1021.16 1020.98
1013.52 1013.74 1014.01 1014.30 1014.59 1014.87 1015.12 1015.35 1015.54 1015.72 1015.90 1016.09 1016.31 1016.56 1016.86 1017.20 1017.56 1017.94 1018.32 1018.69 1019.03 1019.34 1019.60 1019.83 1020.02 1020.20 1020.36 1020.52 1020.68 1020.84 1021.02 1021.19 1021.35 1021.49 1021.61 1021.69 1021.74 1021.74 1021.70 1021.62 1021.51 1021.37 1021.19 1020.99
1013.92 1014.13 1014.39 1014.67 1014.95 1015.22 1015.47 1015.68 1015.88 1016.07 1016.26 1016.46 1016.69 1016.96 1017.27 1017.62 1018.00 1018.39 1018.79 1019.17 1019.53 1019.85 1020.13 1020.38 1020.58 1020.76 1020.92 1021.06 1021.20 1021.33 1021.46 1021.58 1021.69 1021.78 1021.85 1021.88 1021.88 1021.84 1021.76 1021.65 1021.52 1021.35 1021.16 1020.94
1014.30 1014.52 1014.79 1015.07 1015.35 1015.62 1015.87 1016.09 1016.30 1016.49 1016.68 1016.89 1017.13 1017.40 1017.71 1018.06 1018.43 1018.82 1019.22 1019.60 1019.96 1020.28 1020.57 1020.82 1021.03 1021.21 1021.36 1021.49 1021.61 1021.72 1021.81 1021.89 1021.95 1022.00 1022.01 1022.00 1021.96 1021.89 1021.79 1021.66 1021.52 1021.35 1021.15 1020.94
1014.74 1014.98 1015.25 1015.54 1015.83 1016.11 1016.36 1016.59 1016.80 1017.00 1017.20 1017.41 1017.64 1017.90 1018.19 1018.51 1018.86 1019.23 1019.60 1019.96 1020.30 1020.61 1020.89 1021.14 1021.35 1021.52 1021.67 1021.80 1021.90 1021.99 1022.06 1022.12 1022.15 1022.16 1022.15 1022.11 1022.05 1021.96 1021.85 1021.72 1021.58 1021.41 1021.23 1021.03
1015.26 1015.52 1015.81 1016.10 1016.40 1016.67 1016.93 1017.16 1017.38 1017.57 1017.77 1017.97 1018.19 1018.42 1018.69 1018.97 1019.28 1019.60 1019.93 1020.25 1020.56 1020.84 1021.10 1021.33 1021.54 1021.71 1021.86 1021.98 1022.09 1022.17 1022.23 1022.28 1022.30 1022.30 1022.27 1022.23 1022.16 1022.08 1021.97 1021.86 1021.73 1021.58 1021.42 1021.23
1015.85 1016.12 1016.42 1016.72 1017.01 1017.29 1017.54 1017.78 1017.99 1018.18 1018.37 1018.56 1018.76 1018.97 1019.19 1019.44 1019.69 1019.96 1020.23 1020.50 1020.76 1021.00 1021.23 1021.44 1021.62 1021.79 1021.93 1022.06 1022.17 1022.26 1022.33 1022.38 1022.41 1022.41 1022.40 1022.37 1022.32 1022.25 1022.16 1022.07 1021.96 1021.83 1021.69 1021.51
1016.48 1016.76 1017.05 1017.34 1017.62 1017.89 1018.15 1018.38 1018.59 1018.79 1018.98 1019.16 1019.34 1019.53 1019.72 1019.91 1020.12 1020.33 1020.54 1020.74 1020.94 1021.13 1021.31 1021.48 1021.64 1021.79 1021.93 1022.05 1022.17 1022.27 1022.35 1022.42 1022.47 1022.50 1022.51 1022.50 1022.48 1022.44 1022.38 1022.31 1022.22 1022.11 1021.98 1021.81
Thickness
5742 5754 5756 5758 5761 5762 5751 5743 5734 5739 5741 5747 5752 5755 5756 5758 5756 5753 5751 5751 5749 5747 5745 5744 5742 5739 5737 5734 5732 5730 5726 5723 5721 5721 5719 5717 5716 5714 5713 5712 5711 5709 5707 5704
5732 5747 5751 5752 5759 5762 5759 5756 5749 5746 5743 5756 5756 5754 5753 5753 5752 5748 5746 5746 5746 5745 5743 5741 5739 5737 5734 5731 5728 5725 5721 5718 5717 5715 5713 5711 5709 5708 5707 5706 5704 5703 5701 5698
5710 5728 5735 5729 5747 5753 5755 5760 5754 5742 5746 5751 5747 5745 5744 5745 5745 5742 5741 5740 5738 5737 5737 5735 5733 5731 5727 5725 5723 5719 5714 5712 5709 5707 5705 5704 5703 5700 5698 5697 5696 5694 5693 5690
5697 5707 5698 5727 5751 5755 5752 5752 5757 5755 5752 5749 5744 5739 5738 5739 5736 5734 5733 5731 5729 5729 5727 5726 5724 5722 5719 5716 5713 5709 5705 5703 5701 5699 5697 5695 5693 5691 5689 5689 5687 5684 5682 5680
5683 5685 5697 5724 5735 5735 5734 5732 5744 5744 5741 5738 5736 5730 5723 5726 5728 5726 5723 5721 5719 5718 5718 5716 5713 5712 5709 5704 5701 5698 5694 5692 5691 5689 5686 5683 5681 5678 5678 5677 5674 5671 5669 5668
5676 5677 5680 5706 5726 5735 5732 5716 5734 5739 5736 5733 5730 5712 5707 5713 5715 5714 5712 5711 5709 5707 5706 5702 5699 5699 5696 5691 5688 5685 5683 5682 5680 5677 5675 5672 5669 5668 5667 5665 5662 5659 5656 5654
5669 5669 5683 5704 5719 5726 5705 5710 5727 5731 5730 5727 5720 5714 5707 5706 5704 5703 5701 5698 5697 5695 5692 5688 5687 5687 5683 5679 5675 5673 5672 5671 5668 5666 5664 5661 5659 5656 5654 5652 5649 5645 5641 5638
5663 5660 5670 5701 5707 5706 5708 5718 5720 5720 5719 5715 5710 5705 5699 5696 5693 5692 5689 5687 5686 5684 5680 5677 5676 5676 5671 5665 5663 5662 5661 5659 5656 5655 5654 5652 5648 5645 5642 5639 5635 5631 5627 5623
5662 5667 5682 5693 5699 5707 5711 5710 5710 5710 5706 5703 5698 5693 5690 5685 5682 5680 5678 5676 5674 5672 5668 5664 5663 5662 5658 5654 5652 5650 5648 5646 5644 5643 5641 5639 5635 5631 5628 5625 5621 5618 5614 5609
5659 5667 5677 5687 5695 5700 5704 5703 5703 5703 5699 5694 5687 5682 5677 5674 5671 5668 5667 5665 5663 5661 5657 5652 5650 5649 5646 5644 5641 5638 5635 5632 5631 5629 5627 5625 5623 5620 5616 5612 5609 5605 5601 5595
5657 5666 5671 5678 5683 5688 5693 5695 5694 5692 5690 5687 5680 5674 5669 5665 5661 5659 5657 5655 5653 5650 5646 5641 5639 5636 5634 5633 5630 5626 5622 5620 5617 5615 5613 5611 5608 5606 5603 5600 5597 5592 5586 5581
5657 5666 5666 5669 5677 5682 5684 5681 5681 5679 5677 5674 5670 5664 5660 5656 5653 5651 5648 5645 5642 5638 5634 5631 5628 5625 5622 5620 5618 5613 5609 5606 5604 5602 5599 5597 5594 5590 5588 5586 5583 5578 5573 5567
5665 5668 5667 5668 5672 5675 5674 5672 5670 5669 5667 5662 5658 5656 5652 5647 5643 5641 5638 5635 5631 5627 5624 5620 5616 5613 5610 5608 5606 5601 5597 5594 5591 5589 5586 5583 5580 5576 5570 5567 5563 5559 5554 5550
5665 5665 5659 5660 5661 5664 5664 5662 5660 5657 5654 5652 5649 5645 5641 5637 5634 5630 5627 5624 5621 5617 5613 5609 5605 5601 5599 5597 5593 5589 5586 5583 5579 5575 5572 5569 5565 5560 5555 5550 5544 5538 5534 5531
5658 5658 5655 5653 5652 5651 5651 5650 5646 5643 5640 5638 5636 5633 5629 5625 5621 5618 5616 5613 5609 5604 5600 5596 5592 5588 5586 5584 5580 5576 5573 5569 5565 5561 5557 5552 5548 5543 5537 5532 5525 5520 5515 5511
5648 5648 5647 5644 5641 5640 5638 5636 5633 5630 5628 5626 5623 5620 5618 5614 5611 5607 5604 5601 5595 5589 5585 5582 5578 5575 5573 5571 5567 5562 5558 5557 5552 5546 5540 5535 5530 5524 5518 5512 5506 5500 5495 5491
5638 5633 5633 5632 5631 5629 5628 5626 5624 5621 5619 5615 5612 5610 5606 5602 5598 5593 5590 5587 5583 5578 5574 5570 5566 5563 5560 5557 5552 5547 5543 5539 5536 5529 5523 5517 5511 5505 5498 5492 5486 5481 5477 5473
5634 5631 5630 5628 5625 5621 5618 5616 5615 5611 5608 5606 5603 5599 5595 5590 5585 5582 5578 5574 5569 5564 5561 5558 5554 5551 5547 5543 5538 5533 5527 5522 5517 5511 5505 5499 5493 5487 5481 5475 5470 5465 5461 5458
5626 5624 5622 5620 5618 5614 5610 5608 5605 5602 5600 5597 5593 5588 5584 5580 5575 5571 5567 5562 5557 5551 5547 5545 5542 5537 5532 5528 5523 5517 5512 5506 5500 5494 5488 5483 5476 5470 5465 5460 5455 5451 5448 5444
5617 5615 5613 5611 5609 5606 5602 5599 5596 5593 5590 5586 5582 5577 5573 5569 5565 5559 5554 5547 5543 5539 5536 5532 5528 5522 5517 5513 5509 5502 5496 5490 5484 5477 5472 5466 5461 5456 5451 5447 5443 5440 5436 5433
5605 5604 5603 5600 5598 5596 5594 5591 5588 5584 5581 5577 5572 5566 5561 5557 5552 5546 5540 5533 5529 5526 5522 5518 5512 5507 5503 5498 5494 5487 5482 5475 5469 5463 5458 5452 5448 5444 5440 5436 5433 5430 5427 5424
5594 5592 5591 5589 5586 5584 5583 5581 5578 5574 5570 5566 5562 5556 5549 5543 5537 5531 5526 5521 5516 5513 5508 5502 5498 5494 5490 5485 5479 5473 5468 5462 5456 5451 5446 5441 5437 5433 5430 5427 5423 5421 5418 5415
5583 5582 5580 5578 5575 5572 5570 5568 5565 5561 5557 5554 5549 5544 5538 5531 5526 5520 5511 5506 5503 5499 5494 5489 5486 5482 5477 5472 5466 5460 5455 5450 5445 5440 5436 5432 5428 5424 5421 5418 5415 5413 5410 5408
5573 5571 5569 5567 5565 5560 5555 5553 5551 5548 5544 5541 5536 5532 5526 5518 5510 5506 5501 5497 5492 5487 5482 5477 5475 5470 5465 5459 5454 5449 5444 5439 5434 5430 5426 5422 5419 5415 5412 5410 5407 5404 5402 5400
5562 5560 5558 5555 5551 5547 5543 5541 5538 5535 5531 5527 5523 5519 5514 5509 5502 5495 5490 5485 5481 5476 5471 5467 5464 5459 5454 5449 5444 5439 5434 5430 5426 5422 5418 5414 5411 5408 5405 5402 5399 5397 5395 5393
5551 5548 5545 5543 5539 5536 5533 5530 5525 5521 5518 5513 5509 5505 5500 5496 5491 5485 5480 5475 5471 5467 5462 5457 5453 5450 5445 5440 5435 5430 5425 5421 5417 5414 5410 5406 5403 5400 5397 5395 5393 5390 5388 5386
5540 5536 5533 5530 5527 5525 5522 5518 5514 5509 5506 5501 5496 5491 5488 5484 5479 5475 5471 5466 5461 5457 5453 5449 5445 5441 5437 5432 5427 5423 5418 5414 5410 5406 5403 5399 5396 5393 5390 5388 5385 5383 5381 5380